Weather History for KSPS - December, 2013

Change the Weather History Date:

Tuesday, December 17, 2013

  Actual Average Record
Temperature  
Mean Temperature 50 °F 42 °F  
Max Temperature 69 °F 54 °F 79 °F (2002)
Min Temperature 30 °F 30 °F 14 °F (1979)
Degree Days  
Heating Degree Days 15 23  
Month to date heating degree days 466 361  
Since 1 July heating degree days 1024 868  
Moisture  
Dew Point 31 °F    
Average Humidity 53    
Maximum Humidity 82    
Minimum Humidity 23    
Precipitation  
Precipitation 0.00 in 0.05 in 1.25 in (1898)
Month to date precipitation 0.39 0.93  
Year to date precipitation 20.43 28.23  
Snow  
Snow 0.00 in 0.00 in - ()
Month to date snowfall 0.5 0.4  
Since 1 July snowfall 0.7 0.7  
Snow Depth 0.00 in    
Sea Level Pressure  
Sea Level Pressure 30.24 in    
Wind  
Wind Speed 3 mph (NE)    
Max Wind Speed 10 mph    
Max Gust Speed 12 mph    
Visibility 10 miles    
Events      
T = Trace of Precipitation, MM = Missing Value Source: NWS Daily Summary

Daily Weather History Graph

Daily Weather History Graph

Search for Another Location

Airport or City:

Trip Planner

Search our weather history database for the weather conditions in past years. The results will help you decide how hot, cold, wet, or windy it might be!

Date:

Astronomy

Dec. 17, 2013 Rise Set
Actual Time 7:33 AM CST 5:27 PM CST
Civil Twilight 7:05 AM CST 5:54 PM CST
Nautical Twilight 6:34 AM CST 6:26 PM CST
Astronomical Twilight 6:03 AM CST 6:56 PM CST
Moon 6:05 PM CST (12/17) 7:33 AM CST (12/17)
Length of Visible Light 10h 49m
Length of Day
9h 53m
Full, 100% of the Moon is Illuminated
Dec 17
Full
Dec 25
Last Quarter
Jan 1
New
Jan 7
First Quarter
Jan 15
Full

Hourly Weather History & Observations

Time (CST) Temp. Windchill Dew Point Humidity Pressure Visibility Wind Dir Wind Speed Gust Speed Precip Events Conditions
12:52 AM 36.0 °F 31.1 °F 30.0 °F 79% 30.19 in 10.0 mi NNW 5.8 mph - N/A   Clear
1:52 AM 37.0 °F 32.4 °F 30.0 °F 76% 30.17 in 10.0 mi SSW 5.8 mph - N/A   Clear
2:52 AM 33.1 °F 28.7 °F 28.0 °F 82% 30.19 in 10.0 mi NNW 4.6 mph - N/A   Clear
3:52 AM 34.0 °F 31.0 °F 28.9 °F 82% 30.20 in 10.0 mi NNW 3.5 mph - N/A   Clear
4:52 AM 36.0 °F - 28.9 °F 76% 30.19 in 10.0 mi Calm Calm - N/A   Clear
5:52 AM 32.0 °F 27.5 °F 27.0 °F 82% 30.20 in 10.0 mi SW 4.6 mph - N/A   Clear
6:52 AM 32.0 °F - 27.0 °F 82% 30.23 in 10.0 mi Calm Calm - N/A   Clear
7:52 AM 33.1 °F 26.9 °F 28.0 °F 82% 30.25 in 10.0 mi SW 6.9 mph - N/A   Clear
8:52 AM 41.0 °F - 33.1 °F 73% 30.27 in 10.0 mi Calm Calm - N/A   Clear
9:52 AM 46.9 °F - 32.0 °F 56% 30.29 in 10.0 mi Calm Calm - N/A   Clear
10:52 AM 52.0 °F - 33.1 °F 49% 30.31 in 10.0 mi NNW 4.6 mph - N/A   Clear
11:52 AM 57.0 °F - 33.1 °F 40% 30.29 in 10.0 mi ENE 5.8 mph - N/A   Clear
12:52 PM 61.0 °F - 35.1 °F 38% 30.27 in 10.0 mi East 4.6 mph - N/A   Clear
1:52 PM 64.0 °F - 33.1 °F 31% 30.25 in 10.0 mi Calm Calm - N/A   Clear
2:07 PM 64.4 °F - 32.0 °F 30% 30.24 in 10.0 mi Calm Calm - N/A   Clear
2:52 PM 66.9 °F - 30.0 °F 25% 30.24 in 10.0 mi Calm Calm - N/A   Clear
3:52 PM 69.1 °F - 30.0 °F 23% 30.24 in 10.0 mi Calm Calm - N/A   Clear
4:52 PM 64.0 °F - 33.1 °F 31% 30.25 in 10.0 mi East 3.5 mph - N/A   Clear
5:52 PM 61.0 °F - 30.0 °F 31% 30.25 in 10.0 mi Calm Calm - N/A   Clear
6:52 PM 57.0 °F - 30.0 °F 36% 30.26 in 10.0 mi Calm Calm - N/A   Clear
7:52 PM 51.1 °F - 32.0 °F 48% 30.27 in 10.0 mi North 6.9 mph - N/A   Clear
8:52 PM 48.0 °F - 33.1 °F 56% 30.27 in 10.0 mi ENE 5.8 mph - N/A   Clear
9:52 PM 46.0 °F 43.9 °F 32.0 °F 58% 30.27 in 10.0 mi ENE 4.6 mph - N/A   Clear
10:52 PM 42.1 °F 37.7 °F 30.9 °F 65% 30.26 in 10.0 mi ESE 6.9 mph - N/A   Clear
11:52 PM 43.0 °F 40.3 °F 32.0 °F 65% 30.25 in 10.0 mi East 4.6 mph - N/A   Clear